FENGYUN 1C DEB

Satellite information

Favourite Embed

Satellite Type and Status

DEBRISIN ORBIT

Key statistics

Satellite FENGYUN 1C DEB at a glance.

Uptime

9714

Days in orbit

Revolutions

≈ 14.2

Per day

Orbit

SSO

Sun Synchronous Orbit

Inclination

98.5

Latest

Satellite identification and parameters

Extended collection of information and parameters for FENGYUN 1C DEB.

Object identification

Identified? True

Debris? True

Object name: FENGYUN 1C DEB

International designator: 1999-025CNA

Object number (NORAD): 31949

Object ID (CCSDS): 31949

Country: PEOPLES REPUBLIC OF CHINA (PRC)

Current information (Y/N): Y

RCS size: SMALL

Orbital parameters

Period: 101.632 minutes

Inclination: 98.5419 deg

SMA: 7214.083 km

Apoapsis: 926.289 km

Periapsis: 745.606 km

RAAN: 313.4803 deg

Eccentricy: 0.01252295

Argument of periapsis: 269.0533 deg

Mean anomaly: 89.6292 deg

Mean motion: 14.1687356 rev/day

Mean motion (dot): 0.00000856 rev/day2

B* drag term: 0.00041514195 1/REarth

Two-line elements (TLE)

Creation date: Nov. 23, 2025, 9:08 p.m.

Reference frame: TEME

Reference center: EARTH

Epoch: Nov. 23, 2025, 5:03 a.m. UTC

TLE line 0: 0 FENGYUN 1C DEB

TLE line 1: 1 31949U 99025CNA 25327.21073956 .00000856 00000-0 41514-3 0 9990

TLE line 2: 2 31949 98.5419 313.4803 0125230 269.0533 89.6292 14.16873560952280

Live tracking on map

Real-time ground track for satellite FENGYUN 1C DEB.

In-orbit conjunctions

A list of the most updated potential collisions computed for object FENGYUN 1C DEB.

Target Orbit TCA Probability of collision Miss distance Type
IRIDIUM 38 LEO 2025-03-02 06:29:29 0.0004539319 773.0 (m) PAYLOAD

Associated space launch

Chinese polar orbiting meteorological satellite

FENGYUN 1C DEB was lifted into orbit during the mission ‘Long March 4B | Feng Yun 1C’, on board a Long March 4B space rocket.

The launch took place on May 10, 1999, 1:33 a.m. from Launch Complex 7.

For more information about the launch, click the button.

Launch to space Long March 4B | Feng Yun 1C
Long March 4B | Feng Yun 1C

Agency: N/A

Status: Launch Successful

Launch date: May 10, 1999, 1:33 a.m. UTC

Rocket: Long March 4B

Launch pad: Launch Complex 7

Location: Taiyuan Satellite Launch Center, People's Republic of China

...

Latest news about this satellite

There are no fresh news available about this satellite. Check back as we update our databases every day.


Newsletter sign-up

Weekly statistics, charts and insights to help you stay on top of the space industry.